Карточка аэропорта URKK

Внимание!
Информация на этой странице в стадии наполнения.
Если вы не увидели какой-то информации, или заметили неточность - пожалуйста сообщите нам!
Спасибо!
Команда RU-STAFF
Название аэропортаПашковский
Название аэропорта (англ.)Pashkovskiy
Превышение120 ft. (36.6 m.)
Координаты45°2.0820000000001', 39°10.218'
Высота перехода4000 ft
Эшелон переходаFL60 (QNH >= 977); FL70 (QNH < 977)
Коды ответчика1030-1037
Зона ОрВДРостов-на-Дону РПИ (URRV)
Данные METARURKK 041100Z 12003MPS 9999 FEW/// SCT026 03/02 Q1015 R23L/290060 NOSIG RMK QFE758
Проноз погоды (TAF)URKK 040750Z 0409/0509 14003G08MPS 9999 BKN016CB TEMPO 0409/0418 3000 -SHRASN SCT002 BKN016CB FM041800 05003G08MPS 6000 SCT016 TEMPO 0418/0508 0200 FZFG BKN001
NOTAMshow/hide NOTAM
AWOS   TABLE

Информация о ВПП

ВПП Длина ВПП (м.) Покрытие Курс ВПП Частота ILS
23R2200Асфальтобетон226 
23L3000Железобетон226 
05R3000Железобетон46 
05L2200Асфальтобетон46 

Диспетчерские позиции

Позывной Наименование органа УВД Частота
URKK_APPКраснодар-Подход129.6
URKK_GNDКраснодар-Руление119.0
URKK_R_APPКраснодар-Круг121.3
URKK_TWRКраснодар-Вышка118.2



Спутниковое изображение